www.pogodaiklimat.ru

Погода и климат >> Архив погоды >> Россия >> Оренбургская область >> Акбулак


ПОГОДА в Акбулаке

  • Прогноз погоды в Акбулаке
  • Монитор погоды в Акбулаке
  • Климат города

АРХИВ ПОГОДЫ в Акбулаке

Время (UTC), дата Ветер
(напр.,м/с)
 
Видим.   Явления Облачность Т
(С)
Тd
(С)
f
(%)
Тe
(С)
Тes
(С)
Комфортность P
(гПа)
Po
(гПа)
Тmin
(С)
Tmax
(С)
R
(мм)
R24
(мм)
S
(см)
03 14.06 ЮЗ 3 20 км 10/5 600 м
[Sc Ac As]
+17.9 +2.8 36 +18 +19 1010.5 993.4 +13.2
06 14.06 З 3 20 км 8/3 600 м
[Sc diur, vesp Ac trans]
+23.7 +6.9 34 +24 +29 комфорт 1011.0 994.3
09 14.06 З 5-12
{12}
20 км 6/3 600 м
[Sc Ac trans Ci fib]
+25.8 +10.0 37 +27 +32 жарко 1010.4 993.8
12 14.06 СЗ 5-10
{12}
20 км 3/3 600 м
[Sc]
+25.9 +12.0 42 +27 +31 жарко 1010.6 994.1
15 14.06 СЗ 2
{10}
20 км 8/0
[Ci fib]
+24.3 +10.8 43 +26 +26 жарко 1011.0 994.3 +26.3
18 14.06 штиль 0 20 км 4/0
[Ac lent Ci fib]
+16.9 +11.1 69 +17 +17 1012.3 995.2
21 14.06 штиль 0 20 км 8/4 600 м
[Sc Ac As]
+15.7 +11.1 74 +16 +16 1012.4 995.3
00 15.06 Ю 1 20 км в посл. час ливневой дождь 10/5 600 м
[Cb calv Ac As]
+14.3 +12.9 91 +15 +15 1012.7 995.5
03 15.06 СВ 1 20 км 9/8 600 м
[Cb calv Ac As]
+15.9 +14.2 90 +17 +17 1013.6 996.4 +14.2 1
06 15.06 С 1 20 км 9/0
[Ac trans]
+19.7 +10.4 55 +22 +29 комфорт 1013.4 996.4
09 15.06 С 2 20 км 9/0
[Ac As]
+22.0 +8.5 42 +23 +30 комфорт 1013.3 996.5
12 15.06 С 3 20 км 8/0
[Ac trans]
+21.5 +8.9 44 +23 +27 комфорт 1012.7 995.9
15 15.06 С 2 20 км 10/8 630 м
[Sc Ac As]
+18.8 +9.3 54 +20 +20 1012.8 995.8 +22.0
18 15.06 СВ 1 20 км 8/3 600 м
[Sc Ac As]
+15.8 +10.4 70 +17 +17 1013.3 996.1
21 15.06 СВ 2 10 км слабый ливневой дождь 10/8 570 м
[Cb cap Ac lent]
+13.9 +11.7 87 +13 +13 1013.4 996.1
00 16.06 СВ 1 10 км слабый ливневой дождь 10/5 600 м
[Cb cap Ac lent]
+12.4 +10.8 90 +12 +12 1014.0 996.6
03 16.06 СВ 1 20 км {ливн. осадки} 8/3 600 м
[Sc diur, vesp Ac trans Ci fib]
+13.1 +11.0 87 +13 +15 1013.7 996.4 +11.6 4
06 16.06 С 2 20 км {ливн. осадки} 5/3 600 м
[Cu hum Ac As]
+18.3 +9.0 55 +19 +27 1013.1 996.1
09 16.06 СЗ 2 20 км 5/3 600 м
[Cu hum Ac As]
+21.0 +5.7 37 +23 +32 комфорт 1012.0 995.1
12 16.06 С 3 20 км 8/0
[Ac As]
+21.2 +3.4 31 +21 +25 комфорт 1011.8 994.9
15 16.06 С 4 20 км 10/4 600 м
[Sc Ac As]
+19.7 +1.5 30 +20 +20 1011.5 994.5 +22.0
18 16.06 СВ 1 20 км 3/3 600 м
[Sc]
+12.8 +5.1 59 +13 +13 1012.5 995.1
21 16.06 СВ 2 20 км ясно +9.0 +5.1 77 +7 +7 1012.6 995.0
00 17.06 СВ 2 20 км ясно +7.7 +4.5 80 +6 +6 1013.6 995.9
03 17.06 С 2 20 км ясно +14.0 +6.0 59 +14 +17 1013.0 995.7 +7.2
06 17.06 С 4
{10}
20 км 5/5 600 м
[Cu hum]
+17.4 +6.4 48 +17 +22 1012.1 995.0
09 17.06 С 4
{11}
20 км 8/8 600 м
[Cb calv]
+21.2 +7.5 41 +22 +24 комфорт 1010.7 993.9
12 17.06 СЗ 3
{10}
20 км 8/5 600 м
[Cb calv Ac As]
+22.4 +6.8 36 +23 +25 комфорт 1009.5 992.7
15 17.06 С 4 20 км 8/3 600 м
[Sc diur, vesp Ac As]
+22.1 +5.1 33 +22 +23 комфорт 1008.9 992.1 +23.5
18 17.06 СВ 2 20 км 3/3 600 м
[Sc]
+14.8 +6.8 59 +15 +15 1010.0 992.8
21 17.06 штиль 0 20 км ясно +13.7 +8.3 70 +13 +13 1010.0 992.7
00 18.06 СЗ 1 20 км 3/3 600 м
[Sc]
+11.9 +7.7 75 +12 +12 1009.9 992.6
03 18.06 СВ 3 20 км 3/0
[Ci fib]
+15.2 +9.7 70 +15 +18 1010.2 993.0 +10.3
06 18.06 С 4 20 км 4/4 600 м
[Cu hum]
+19.2 +8.6 50 +20 +25 1009.5 992.6
09 18.06 СЗ 3 20 км 6/6 600 м
[Cu med, cong]
+21.6 +7.8 41 +23 +28 комфорт 1008.7 991.9
12 18.06 С 3 20 км 1/1 600 м
[Cu hum]
+22.3 +7.1 37 +23 +30 комфорт 1008.4 991.7
15 18.06 С 3 20 км ясно +21.1 +6.9 40 +22 +23 комфорт 1008.4 991.6 +23.0
18 18.06 штиль 0 20 км ясно +14.6 +7.6 63 +14 +14 1009.5 992.3
21 18.06 штиль 0 20 км ясно +11.2 +7.9 80 +11 +11 1009.6 992.2
00 19.06 штиль 0 20 км ясно +9.1 +7.4 89 +8 +8 1009.8 992.3
03 19.06 ЮЗ 1 20 км ясно +16.1 +9.8 66 +17 +21 1009.9 992.8 +8.9
06 19.06 СЗ 3 20 км 6/6 600 м
[Cb calv]
+24.5 +9.7 39 +25 +30 комфорт 1009.2 992.6
09 19.06 СЗ 3 20 км 8/8 600 м
[Cb calv]
+27.4 +7.2 28 +27 +30 жарко 1008.4 991.9
12 19.06 С 2 20 км 3/3 600 м
[Cu hum]
+28.2 +4.2 22 +27 +33 жарко 1007.8 991.4
15 19.06 СЗ 2 20 км ясно +27.8 +4.6 23 +27 +27 жарко 1007.5 991.1 +29.0
18 19.06 З 1 20 км ясно +18.2 +8.2 52 +19 +19 1009.1 992.1
21 19.06 штиль 0 20 км ясно +13.0 +8.6 75 +13 +13 1009.6 992.3
00 20.06 СВ 1 20 км 3/3 600 м
[Sc]
+10.8 +7.6 81 +11 +11 1009.7 992.3
03 20.06 СЗ 1 20 км ясно +19.2 +7.9 48 +21 +25 комфорт 1009.6 992.7 +10.6
06 20.06 З 3 20 км ясно +28.9 +8.4 28 +28 +40 жарко 1008.5 992.1
09 20.06 З 3 20 км 4/4 600 м
[Cu hum]
+30.9 +6.7 22 +29 +38 жарко 1007.4 991.1
12 20.06 З 4-10
{10}
20 км 8/3 600 м
[Cu hum Ac As]
+31.2 +3.4 17 +29 +31 жарко 1005.7 989.5
15 20.06 З 1
{10}
20 км 8/3 600 м
[Sc Ac As Ci fib]
+29.1 +5.7 23 +28 +28 жарко 1004.7 988.4 +31.7
18 20.06 З 1 20 км 3/3 600 м
[Sc]
+21.4 +5.3 35 +22 +22 комфорт 1005.1 988.4
21 20.06 З 1 20 км 10/3 600 м
[Sc Ac As]
+21.0 +6.2 38 +23 +23 комфорт 1005.0 988.3

 

Местоположение метеостанции Акбулак (Оренбургская область, Россия): широта 51.02 долгота 55.63 высота над уровнем моря 144 м.

В архиве по умолчанию представлена погода в Акбулаке за последнюю неделю. Архивные данные за месяц целиком и за предыдущие месяцы, начиная с января 2011 года, Вы можете получить, выбрав интересующий диапазон дат из раскрывающегося списка и нажав кнопку "Ввод!".


*Определитесь, кто Вы:
робот инопланетянин человек

Внимание! Время в таблицах - всемирное. Для получения местного времени необходимо прибавить поправку, которая в Акбулаке равна 5 ч.

Смотрите также архив погоды в соседних городах и на ближайших метеорологических станциях:

Погода в Соль-Илецк (Оренбургская область, Россия) (45 км)
Погода в Мартуке (Актюбинская область, Казахстан) (70 км)
Погода в Беляевке (Оренбургская область, Россия) (71 км)
Погода в Оренбурге (Оренбургская область, Россия) (82 км)
Погода в Новоалексеевке (Костанайская область, Казахстан) (99 км)
Погода в Татарской Каргале (Оренбургская область, Россия) (103 км)
Погода в Чингирлау (Западно-Казахстанская область, Казахстан) (107 км)
Погода в Родниковке (Актюбинская область, Казахстан) (116 км)
Погода в Каралаатсае (Актюбинская область, Казахстан) (127 км)
Погода в Кувандыке (Оренбургская область, Россия) (131 км)

Пояснения к столбцам:

Ветер - указаны скорость ветра в м/с - средняя за 10 мин, порывы в срок и между сроками (в фигурных скобках) и направление, откуда дует ветер: С - северный, СВ - северо-восточный, В - восточный, ЮВ - юго-восточный, Ю - южный, ЮЗ - юго-западный, З - западный, СЗ - северо-западный.
Видимость - горизонтальная дальность видимости в метрах или километрах. При видимости от 1 до 10 км при отсутствии осадков обычно наблюдается дымка, при ухудшении видимости до 1 км и менее - туман. В сухую погоду видимость может ухудшаться дымом, пылью или мглою.
Явления - указаны атмосферные явления, наблюдавшиеся в срок или в последний час перед сроком; фигурными скобками обозначены явления, наблюдавшиеся между сроками (за 1-3 часа до срока); квадратными скобками обозначены град или гололедные отложения с указанием их диаметра в мм.
Облачность - указаны через наклонную черту общая и нижняя облачность в баллах и высота нижней границы облаков в метрах; квадратными скобками обозначены формы облаков: Ci - перистые, Cs - перисто-слоистые, Cc - перисто-кучевые, Ac - высококучевые, As - высокослоистые, Sc - слоисто-кучевые, Ns - слоисто-дождевые, Cu - кучевые, Cb - кучево-дождевые. Подробнее классификацию облаков см. в Атласе облаков (PDF).
T - Температура воздуха - температура, измеренная на высоте 2 м над землей.
Td - Температура точки росы - температура, при понижении до которой содержащийся в воздухе водяной пар достигнет насыщения.
f - Относительная влажность воздуха - влажноcть воздуха, измеренная на высоте 2 м над землей.
Te - Эффективная температура - температура, которую ощущает одетый по сезону человек в тени. Характеристика душности погоды. При расчете учитывается влияние влажности воздуха и скорости ветра на теплоощущения человека.
Tes - Эффективная температура на солнце - температура, которую ощущает человек, с поправкой на солнечный нагрев. Характеристика знойности погоды. Зависит от высоты солнца над горизонтом, облачности и скорости ветра. Ночью, в пасмурную погоду, а также при ветре 12 м/с и более поправка равна нулю.
P - Атмосферное давление - приведенное к уровню моря атмосферное давление.
Po - Атмосферное давление - измеренное на уровне метеостанции атмосферное давление.
Tmin - Минимальная температура - минимум температуры воздуха на высоте 2 м над землей.
Tmax - Максимальная температура - максимум температуры воздуха на высоте 2 м над землей.
R - Количество осадков - Количество выпавших осадков за период времени, мм. При наведении курсора мыши на число - период времени, за который выпало указанное количество осадков.
R24 - Количество осадков - Количество выпавших осадков за 24 часа, мм.
S - Снежный покров - Высота снежного покрова, см. При наведении курсора мыши на число - состояние снежного покрова и степень покрытия местности в баллах.